Regional Weather Roundup
Issued by NWS Burlington, VT

Home | Current Version | Previous Version | Text Only | Print | Product List | Glossary On
Versions: 1 2 3 4 5 6 7 8 9 10 11 12 13 14 15 16 17 18 19 20 21 22 23 24 25 26 27 28 29 30 31 32 33 34 35 36 37 38 39 40 41 42 43 44 45 46 47 48 49 50
000
ASUS41 KBTV 280610
RWRBTV
VERMONT REGIONAL WEATHER ROUNDUP
NATIONAL WEATHER SERVICE BURLINGTON VT
200 AM EDT TUE MAR 28 2017

NOTE: "FAIR" INDICATES FEW OR NO CLOUDS BELOW 12,000 FEET WITH NO
SIGNIFICANT WEATHER AND/OR OBSTRUCTIONS TO VISIBILITY.

* THESE REPORTS ARE NOT UNDER NWS QUALITY CONTROL AND/OR DO NOT
  REPORT WEATHER SUCH AS PRECIPITATION AND FOG.

VTZ001>019-280700-
_____VERMONT_____


CITY           SKY/WX    TMP DP  RH WIND       PRES   REMARKS
BURLINGTON     CLOUDY    39  38  96 S3        29.93F
6HR MIN TEMP:  37; 6HR MAX TEMP:  39; 6HR PCP: TRACE;

MONTPELIER     CLOUDY    35  34  96 CALM      29.98F
6HR MIN TEMP:  34; 6HR MAX TEMP:  35; 6HR PCP: TRACE;

MORRISVILLE    CLOUDY    33  32  96 S5        29.96F FOG     WCI  29
6HR MIN TEMP:  32; 6HR MAX TEMP:  35; 6HR PCP:  0.03;

ST. JOHNSBURY*   N/A     35  34  96 MISG      29.97S
6HR MIN TEMP:  34; 6HR MAX TEMP:  36;

LYNDONVILLE*   FOG       33  33  99 SE3       29.97F VSB 3/4
6HR MIN TEMP:  33; 6HR MAX TEMP:  35;

MIDDLEBURY*    CLOUDY    41  39  93 SE3       29.95S
6HR MIN TEMP:  35; 6HR MAX TEMP:  41;

RUTLAND*       CLOUDY    37  34  89 SE9       29.97S WCI  30
6HR MIN TEMP:  37; 6HR MAX TEMP:  39;

SPRINGFIELD    FOG       34  32  92 CALM      30.00F VSB 1/2
6HR MIN TEMP:  33; 6HR MAX TEMP:  36;

HIGHGATE*      CLOUDY    39  39  98 S5        29.92S
6HR MIN TEMP:  38; 6HR MAX TEMP:  40;

NEWPORT*       CLOUDY    35  33  94 S6        29.95S WCI  30
6HR MIN TEMP:  35; 6HR MAX TEMP:  36;

BENNINGTON     CLOUDY    39  37  92 SW3       29.96F
6HR MIN TEMP:  38; 6HR MAX TEMP:  41;

SUTTON*          N/A     32 N/A N/A MISG        N/A

_____LAKE CHAMPLAIN_____


CITY           SKY/WX    TMP DP  RH WIND       PRES   REMARKS
BURTON ISLAND*   N/A     37  37 100 SW9         N/A  WCI  31
COLCHESTER RF*   N/A     39  37  93 S18         N/A  WCI  30

$$

NYZ007-026>031-035-052-083-087-280700-
_____NORTHERN NEW YORK_____


CITY           SKY/WX    TMP DP  RH WIND       PRES   REMARKS
PLATTSBURGH    CLOUDY    37  36  96 CALM      29.92F
6HR MIN TEMP:  35; 6HR MAX TEMP:  38; 6HR PCP: TRACE;

MASSENA        FOG       36  36 100 CALM      29.90F VSB 1/4
6HR MIN TEMP:  35; 6HR MAX TEMP:  37;

POTSDAM*       FOG       46  46 100 S3        29.89S VSB 3/4
WATERTOWN      CLOUDY    49  47  93 SW3       29.89F
6HR MIN TEMP:  48; 6HR MAX TEMP:  50;

FT DRUM        MOCLDY    42  40  93 SE10      29.88S
6HR MIN TEMP:  41; 6HR MAX TEMP:  43;

ALBANY         CLOUDY    44  40  85 CALM      29.98S
6HR MIN TEMP:  42; 6HR MAX TEMP:  45;

GLENS FALLS    FOG       36  35  96 CALM      29.97F VSB 1
6HR MIN TEMP:  35; 6HR MAX TEMP:  37;


$$
NHZ002-005-011-280700-
_____NEW HAMPSHIRE_____


CITY           SKY/WX    TMP DP  RH WIND       PRES   REMARKS
LEBANON        CLOUDY    35  34  96 NE3       29.99F
6HR MIN TEMP:  34; 6HR MAX TEMP:  37;

KEENE          CLOUDY    35  34  96 CALM      30.02R FOG
6HR MIN TEMP:  34; 6HR MAX TEMP:  37;

MT WASHINGTON  FOG       34  34 100 W41         N/A  VSB 0   WCI  18
6HR MIN TEMP:  30; 6HR MAX TEMP:  34;

PLYMOUTH       CLOUDY    33  33  99 CALM      30.02S
6HR MIN TEMP:  33; 6HR MAX TEMP:  35;

WHITEFIELD     CLOUDY    34  30  85 CALM      29.97R
6HR MIN TEMP:  33; 6HR MAX TEMP:  35;


$$

_____REGIONAL QUEBEC LOCATIONS_____


CITY           SKY/WX    TMP DP  RH WIND       PRES   REMARKS
MONTREAL       FOG       34  34 100 N6        29.90F VSB 5/8 WCI  29
QUEBEC CITY    FRZ DRZL  30  28  93 E10G17    29.98F FOG     WCI  21
SHERBROOKE     LGT RAIN  34  34 100 E3        29.92F FOG

_____REGIONAL ONTARIO LOCATIONS_____


CITY           SKY/WX    TMP DP  RH WIND       PRES   REMARKS
OTTAWA         LGT RAIN  34  34 100 NE6       29.88S VSB 3/4 WCI  29

______KEY______
VSB  - VISIBILITY IN MILES
WCI  - WIND CHILL INDEX
HX   - HEAT INDEX
$$
NNNN




USA.gov is the U.S. government's official web portal to all federal, state and local government web resources and services.